Location: Cartignies
(50.0929°N, 3.8447°E)
Time: 14:14:42
(UTC+00:00)

Cosmos 1603 - Pass Details

Date: 12 January 2026
Orbit: 831 x 857 km, 71.0° (Epoch: 16 February)

Event Time Altitude Azimuth Distance (km) Brightness Sun altitude
Rises 18:46:54 0° 211° (SSW) 3,390 7.3 -24.9°
Reaches altitude 10° 18:49:21 10° 212° (SSW) 2,455 6.5 -25.3°
Maximum altitude 18:54:59 79° 300° (WNW) 858 3.7 -26.2°
Enters shadow 18:56:21 53° 15° (NNE) 1,022 3.9 -26.4°
